User: anonymous   Login
Location: ???? ??
(36.0534°N, 43.5630°E)
Time: 21:03:02
(UTC+00:00)
Language:

SL-8 Rocket - Orbit

View from above orbital plane
View from above orbital plane
View from above satellite
View from above satellite

Ground track
Ground track

The orbit data is extracted from the following two-line orbital elements,

1 21088U 91006B   19322.89690927  .00000062  00000-0  47039-4 0  9997
2 21088  82.9427  82.5172 0022547   6.9468 111.0957 13.77130455447365
Epoch (UTC): 18 November 2019 21:31:32
Eccentricity: 0.0022547
inclination: 82.9427°
perigee height: 957 km
apogee height: 990 km
right ascension of ascending node: 82.5172°
argument of perigee: 6.9468°
revolutions per day: 13.77130455
mean anomaly at epoch: 111.0957°
orbit number at epoch: 44736

The dashed part of the orbit path shows where the satellite is in the earth's shadow,  

DLR